Regional Weather Roundup
Issued by NWS Spokane, WA

Home | Current Version | Previous Version | Text Only | Print | Product List | Glossary On
Versions: 1 2 3 4 5 6 7 8 9 10 11 12 13 14 15 16 17 18 19 20 21 22 23 24 25 26 27 28 29 30 31 32 33 34 35 36 37 38 39 40 41 42 43 44 45 46 47 48 49 50
000
NZUS01 KOTX 172210
RWROTX
EASTERN WASHINGTON/NORTHERN IDAHO ROUNDUP
NATIONAL WEATHER SERVICE, SPOKANE WA
300 PM PDT WED SEP 17 2014

Note: "fair" indicated few or no clouds below 12,000 feet with no
significant weather and/or obstructions to visibility.

...NORTHEAST WASHINGTON AND NORTHERN IDAHO PANHANDLE...

CITY           SKY/WX    TMP DP  RH WIND       PRES   REMARKS
SPOKANE INTL   CLOUDY    81  40  23 NE5       29.75F
SPOKANE DOWNTO CLOUDY    83  42  23 CALM      29.74F
COEUR D ALENE  PTSUNNY   82  39  21 SE3       29.74F
DEER PARK      PTSUNNY   83  40  21 S5        29.75F
SANDPOINT      PTSUNNY   75  50  41 E3        29.76F

...SOUTHEAST WASHINGTON AND SOUTHERN IDAHO PANHANDLE...

CITY           SKY/WX    TMP DP  RH WIND       PRES   REMARKS
WALLA WALLA    PTSUNNY   87  38  17 W7        29.69F
PULLMAN/MOSCOW CLOUDY    84  37  18 S9        29.77F
LEWISTON       PTSUNNY   86  44  23 VRB3      29.68F HAZE
LOWELL           N/A     74  56  53 CALM      29.74F

...COLUMBIA BASIN...

CITY           SKY/WX    TMP DP  RH WIND       PRES   REMARKS
EPHRATA        CLOUDY    84  38  19 S7        29.69F
MOSES LAKE     CLOUDY    83  43  24 SW6       29.69F
TRI CITIES     PTSUNNY   82  49  31 NW5       29.65F
HERMISTON      PTSUNNY   82  46  28 NW5       29.66F
PENDLETON      PTSUNNY   85  37  18 N6        29.69F

...EAST SLOPES CASCADES...

CITY           SKY/WX    TMP DP  RH WIND       PRES   REMARKS
THE DALLES     PTSUNNY   82  47  29 W3        29.63F
YAKIMA         PTSUNNY   83  45  26 S3        29.68F
ELLENSBURG     PTSUNNY   82  49  31 CALM      29.70F
WENATCHEE      PTSUNNY   82  42  24 E7        29.68F
OMAK           CLOUDY    83  41  22 S6        29.69F

...SOUTHERN BRITISH COLUMBIA...

CITY           SKY/WX    TMP DP  RH WIND       PRES   REMARKS
PENTICTON      CLOUDY    70  45  40 N8        29.72S
CASTLEGAR      PTSUNNY   72  50  46 N8        29.73
CRANBROOK      PTSUNNY   73  46  38 VRB5      29.80

...WESTERN MONTANA...

CITY           SKY/WX    TMP DP  RH WIND       PRES   REMARKS
MISSOULA       CLOUDY    80  47  31 VRB3      29.82F

...NEIGHBORING CITIES...

CITY           SKY/WX    TMP DP  RH WIND       PRES   REMARKS
SEATTLE        CLOUDY    72  56  57 N8        29.74F
CALGARY        PTSUNNY   77  39  25 CALM      29.77F



USA.gov is the U.S. government's official web portal to all federal, state and local government web resources and services.